Weather History for Charlottetown, PE

Change the Weather History Date:

Tuesday, May 28, 2013

  Actual Average Record
Temperature  
Mean Temperature 43 °F -  
Max Temperature 51 °F 66 °F 73 °F (2006)
Min Temperature 35 °F 48 °F 35 °F (2013)
Degree Days  
Heating Degree Days 22    
Moisture  
Dew Point 39 °F    
Average Humidity 82    
Maximum Humidity 100    
Minimum Humidity 43    
Precipitation  
Precipitation 0.01 in 0.12 in - ()
Sea Level Pressure  
Sea Level Pressure 30.18 in    
Wind  
Wind Speed 6 mph ()    
Max Wind Speed 14 mph    
Max Gust Speed 24 mph    
Visibility 13.9 miles    
Events Rain    
Averages and records for this station are not official NWS values.
T = Trace of Precipitation, MM = Missing Value Source: Averaged Metar Reports

Daily Weather History Graph

Daily Weather History Graph

Search for Another Location

Airport:

Trip Planner

Search our weather history database for the weather conditions in past years. The results will help you decide how hot, cold, wet, or windy it might be!

Date:

Astronomy

May. 28, 2013 Rise Set
Actual Time 5:26 AM ADT 8:53 PM ADT
Civil Twilight 4:49 AM ADT 9:30 PM ADT
Nautical Twilight 4:00 AM ADT 10:20 PM ADT
Astronomical Twilight 2:57 AM ADT 11:24 PM ADT
Moon No Moon Rise 9:15 AM ADT (5/28)
Length of Visible Light 16h 41m
Length of Day
15h 26m
Waning Gibbous, 83% of the Moon is Illuminated
May 28
Waning Gibbous
May 31
Last Quarter
Jun 8
New
Jun 16
First Quarter
Jun 23
Full

Hourly Weather History & Observations

Time (ADT) Temp. Windchill Dew Point Humidity Pressure Visibility Wind Dir Wind Speed Gust Speed Precip Events Conditions
12:00 AM 44.6 °F 43.1 °F 44.6 °F 100% 30.04 in 4.0 mi North 3.5 mph - N/A   Light Drizzle
1:00 AM 44.6 °F 42.2 °F 44.6 °F 100% 30.04 in 12.0 mi NE 4.6 mph - N/A   Overcast
1:22 AM 44.6 °F 43.1 °F 44.6 °F 100% 30.04 in 11.0 mi East 3.5 mph - N/A   Overcast
2:00 AM 44.6 °F 43.1 °F 44.6 °F 100% 30.05 in 12.0 mi South 3.5 mph - N/A   Overcast
3:00 AM 44 °F - 44 °F 100% 30.05 in 10 mi South 4.6 mph - -   Partly Cloudy
3:00 AM 44.6 °F 42.2 °F 44.6 °F 100% 30.05 in 10.0 mi SSE 4.6 mph - N/A   Overcast
3:49 AM 42.8 °F 40.1 °F 42.8 °F 100% 30.05 in 12.0 mi South 4.6 mph - N/A   Mostly Cloudy
4:00 AM 42.8 °F 41.1 °F 42.8 °F 100% 30.05 in 12.0 mi South 3.5 mph - N/A   Mostly Cloudy
5:00 AM 44.6 °F 40.7 °F 42.8 °F 93% 30.07 in 15.0 mi WSW 6.9 mph - N/A   Mostly Cloudy
5:49 AM 44.6 °F 38.8 °F 42.8 °F 93% 30.09 in 15.0 mi NW 11.5 mph 18.4 mph N/A Rain Light Rain Showers
6:00 AM 44.6 °F 38.8 °F 42.8 °F 93% 30.10 in 15.0 mi NW 11.5 mph - N/A Rain Light Rain Showers
6:24 AM 42.8 °F 37.5 °F 42.8 °F 100% 30.12 in 15.0 mi NW 9.2 mph - N/A   Mostly Cloudy
7:00 AM 42.8 °F 38.6 °F 42.8 °F 100% 30.13 in 15.0 mi NNW 6.9 mph - N/A   Mostly Cloudy
8:00 AM 44.6 °F 42.2 °F 42.8 °F 93% 30.15 in 15.0 mi NW 4.6 mph - N/A   Overcast
9:00 AM 46 °F - 42 °F 80% 30.17 in 15 mi NW 10.4 mph - -   Partly Cloudy
9:00 AM 46.4 °F 41.9 °F 41.0 °F 81% 30.17 in 15.0 mi NW 9.2 mph - N/A   Mostly Cloudy
10:00 AM 46.4 °F 41.5 °F 41.0 °F 81% 30.17 in 15.0 mi NW 10.4 mph - N/A   Mostly Cloudy
11:00 AM 48.2 °F - 41.0 °F 76% 30.20 in 15.0 mi NNW 10.4 mph 19.6 mph N/A   Mostly Cloudy
12:00 PM 48.2 °F - 37.4 °F 66% 30.22 in 15.0 mi NNW 12.7 mph 24.2 mph N/A   Mostly Cloudy
1:00 PM 48.2 °F - 39.2 °F 71% 30.23 in 15.0 mi NW 11.5 mph 20.7 mph N/A   Scattered Clouds
2:00 PM 48.2 °F - 35.6 °F 62% 30.25 in 15.0 mi North 13.8 mph 24.2 mph N/A   Scattered Clouds
3:00 PM 50 °F - 34 °F 43% 30.26 in 15 mi NNW 9.2 mph - -   Scattered Clouds
3:00 PM 50.0 °F - 33.8 °F 54% 30.26 in 15.0 mi North 10.4 mph - N/A   Partly Cloudy
4:00 PM 51.8 °F - 35.6 °F 54% 30.26 in 15.0 mi North 11.5 mph 17.3 mph N/A   Partly Cloudy
5:00 PM 50.0 °F - 32.0 °F 50% 30.27 in 15.0 mi North 12.7 mph 19.6 mph N/A   Partly Cloudy
6:00 PM 50.0 °F - 35.6 °F 58% 30.27 in 15.0 mi North 11.5 mph - N/A   Partly Cloudy
7:00 PM 48.2 °F - 35.6 °F 62% 30.28 in 15.0 mi NNE 8.1 mph - N/A   Partly Cloudy
8:00 PM 44.6 °F 41.4 °F 35.6 °F 71% 30.29 in 15.0 mi NNE 5.8 mph - N/A   Partly Cloudy
9:00 PM 40 °F - 34 °F 72% 30.31 in 15 mi NE 3.5 mph - -   Clear
9:00 PM 41.0 °F 38.0 °F 33.8 °F 76% 30.31 in 15.0 mi NE 4.6 mph - N/A   Partly Cloudy
10:00 PM 37.4 °F 34.9 °F 32.0 °F 81% 30.32 in 15.0 mi ENE 3.5 mph - N/A   Clear
11:00 PM 35.6 °F 32.8 °F 33.8 °F 93% 30.32 in 15.0 mi East 3.5 mph - N/A   Clear
11:24 PM 35.6 °F 31.7 °F 32.0 °F 87% 30.32 in 15.0 mi East 4.6 mph - N/A   Clear